Current Version              Previous Version:    01  02  03  04  05  06  07  08  09  10  11  12  13  14  15  16  17  18  19  20  21  22  23  24  25  26  27  28  29  30  
   31  32  33  34  35  36  37  38  39  40  41  42  43  44  45  46  47  48  49  50  51  52  53  54  55  56  57  58  59  60  

[Printable]
285
ASUS44 KFWD 301710
RWRTX
NORTH TEXAS HOURLY WEATHER ROUNDUP
NATIONAL WEATHER SERVICE FORT WORTH TX
1200 PM CDT THU OCT 30 2014

NOTE: "FAIR" INDICATES FEW OR NO CLOUDS BELOW 12,000 FEET WITH NO
SIGNIFICANT WEATHER AND/OR OBSTRUCTIONS TO VISIBILITY.

TXZ118-119-301800-
DALLAS/FORT WORTH METROPLEX

CITY           SKY/WX    TMP DP  RH WIND       PRES   REMARKS
DFW AIRPORT    MOSUNNY   71  46  40 S10       30.15F
DALLAS LOVE    MOSUNNY   70  47  43 S12       30.16F
FTW MEACHAM    SUNNY     73  50  44 SW10      30.15F
DAL-EXECUTIVE  SUNNY     72  46  39 VRB5G16   30.16F
FTW-ALLIANCE   MOSUNNY   72  47  40 S13       30.15F
FTW-NAS-JRB    MOSUNNY   75  48  38 S12       30.19F
FTW-SPINKS     MOSUNNY   72  50  46 S8        30.17F
ARLINGTON      SUNNY     72  46  39 S9        30.16F
GRAND PRAIRIE  SUNNY     72  48  43 MISG      30.17F
ADDISON        SUNNY     68  46  45 S9        30.17S
MESQUITE       SUNNY     70  46  43 S10       30.18F
LANCASTER      SUNNY     70  45  40 S6        30.18F
$$

TXZ091>094-102>105-117-120-121-131>134-301800-
NORTH CENTRAL TEXAS

CITY           SKY/WX    TMP DP  RH WIND       PRES   REMARKS
SHRMAN/DENISON PTSUNNY   71  50  48 S13       30.17S
GAINESVILLE    MOSUNNY   71  48  44 S8        30.17F
BOWIE          MOSUNNY   72  51  48 S12       30.15S
BRIDGEPORT     MOSUNNY   73  55  52 SW7       30.17S
DECATUR        SUNNY     71  47  43 S9        30.15F
DENTON         SUNNY     71  46  40 S10G18    30.15F
MCKINNEY       SUNNY     70  47  43 S15       30.16F
GREENVILLE     SUNNY     70  45  40 S6        30.17F
ROCKWALL       SUNNY     69  48  47 SW10G21   30.16F
TERRELL        SUNNY     71  49  45 S9        30.18S
WAXAHACHIE     SUNNY     71  49  45 S10       30.18S
CLEBURNE       SUNNY     70  52  52 S9        30.17F
GRANBURY       MOSUNNY   71  55  55 SE10      30.17S
$$

TXZ083>090-098>101-113>116-127>130-139>142-154-155-301800-
WESTERN NORTH TEXAS

CITY           SKY/WX    TMP DP  RH WIND       PRES   REMARKS
WICHITA FALLS  MOSUNNY   73  54  51 SW10      30.13F
WF-KICKAPOO    SUNNY     73  53  47 SW12G17   30.15S
VERNON         MOSUNNY   72  52  49 W3        30.16S
ABILENE        SUNNY     75  60  59 SW13      30.15S
ABILENE-DYESS  SUNNY     76  61  60 S12       30.13F
BRECKENRIDGE   SUNNY     75  58  55 S6        30.14F HAZE
GRAHAM         MOSUNNY   73  60  62 S10       30.13F
MINERAL WELLS  CLOUDY    68  52  56 VRB3      30.14F
STEPHENVILLE   SUNNY     71  57  62 S8        30.18F
COMANCHE       SUNNY     74  62  66 SW3       30.16S
BROWNWOOD      MOSUNNY   70  61  73 SW7       30.17S
COLEMAN        CLOUDY    70  62  75 S7        30.17S
BRADY          SUNNY     73  61  64 S8        30.14F
$$

TXZ143>147-156>162-174-175-301800-
CENTRAL TEXAS

CITY           SKY/WX    TMP DP  RH WIND       PRES   REMARKS
WACO           MOSUNNY   69  47  45 SE9       30.17F
WACO-MCGREGOR  PTSUNNY   70  46  43 SE9       30.18F
HILLSBORO      SUNNY     72  47  42 S8        30.16F
CORSICANA      SUNNY     70  47  43 S9        30.18F
MEXIA          MOSUNNY   69  49  48 SE5       30.17S
HEARNE         MOSUNNY   70  47  43 E3        30.17F
CAMERON        MOSUNNY   70  50  49 S6        30.16F
TEMPLE         MOSUNNY   66  46  48 E6        30.16S
KILLEEN        SUNNY     70  53  54 S9        30.16F
KILLEEN-SKYLRK MOSUNNY   72  50  46 S5        30.14F
FORT HOOD      PTSUNNY   73  52  47 S8        30.16F
GATESVILLE     MOSUNNY   70  52  52 S6        30.18F
HAMILTON       SUNNY     72  58  62 SE12      30.17S
LAMPASAS       PTSUNNY   71  62  73 CALM      30.15F
$$

TXZ095>097-106>112-122>126-135>138-148>153-164>167-301800-
EAST TEXAS

CITY           SKY/WX    TMP DP  RH WIND       PRES   REMARKS
PARIS          SUNNY     68  43  40 S10       30.17F
SULPHUR SPRNGS SUNNY     70  39  32 S9        30.19S
MOUNT PLEASANT SUNNY     70  44  39 S6        30.19F
MINEOLA        SUNNY     70  43  37 SE7       30.18F
TYLER          SUNNY     68  44  42 SE7       30.18F
LONGVIEW       SUNNY     69  47  45 S8        30.17F
MARSHALL       SUNNY     70  45  40 S6        30.19F
ATHENS         SUNNY     68  46  45 SE5       30.16F
PALESTINE      SUNNY     69  46  44 SE6       30.19F
JACKSONVILLE   SUNNY     68  43  39 SE7       30.19F
HENDERSON      SUNNY     68  42  38 SE7       30.19F
NACOGDOCHES    SUNNY     68  46  45 S6        30.18F
LUFKIN         SUNNY     72  47  40 SE7       30.18S
$$

SUPPLEMENTAL OBSERVATIONS (CENTRAL)

CITY           SKY/WX    TMP DP  RH WIND       PRES   REMARKS
PAT MAYSE LAKE   N/A     68  39  34 SE13        N/A
GREENVILLE       N/A     72  41  33 S9          N/A
CEDAR HILL       N/A     73  46  38 S7          N/A
PALESTINE        N/A     72  48  43 SE5         N/A
MCGREGOR         N/A     72  46  40 S6G14       N/A
TEMPLE           N/A     68  48  49 SE5         N/A
$$

SUPPLEMENTAL OBSERVATIONS (WEST)

CITY           SKY/WX    TMP DP  RH WIND       PRES   REMARKS
MILLERS CREEK    N/A     73  59  60 SW7         N/A
POSSUM KINGDOM   N/A     73  55  53 S6          N/A
GRANBURY         N/A     70  52  52 S12         N/A
HAMBY            N/A     75  59  57 SW12        N/A
$$

SUPPLEMENTAL OBSERVATIONS (EAST)

CITY           SKY/WX    TMP DP  RH WIND       PRES   REMARKS
TEXARKANA        N/A     72  48  43 SW3         N/A
LINDEN           N/A     72  45  37 S2          N/A
LUFKIN           N/A     72  46  40 MISG        N/A
N SABINE NF      N/A     72  52  49 MISG        N/A
$$

SUPPLEMENTAL OBSERVATIONS ARE A COLLECTION OF AUTOMATED INSTRUMENTS
THAT ARE MAINTAINED BY A VARIETY OF FEDERAL AND STATE AGENCIES.
CERTAIN ELEMENTS...SUCH AS HUMIDITY VALUES AND SUSTAINED WIND
SPEEDS...MAY BE APPROXIMATED.